Погода в Куинёне

Вьетнам     13°46′27″N   109°14′33″E
темп.,
°C
ветер,
м/с
пор.,
м/с
влажн.,
%
обл.,
%
осадки,
мм/ч
давл.,
гПа
погр.,
м
8 марта, пн
пн801:00+23ссз348926 0.3 1015228
04:00+23сз239113 0.2 1015217
07:00+24ссв348630 0.6 1017458
10:00+26св677724 0.6 1018732
13:00+27св567214 0.7 1015713
16:00+26св45731 0.0 1013625
19:00+24ссв34861 0.0 1014313
22:00+24с358934 0.1 1017383
9 марта, вт
вт901:00+23ссз349027 0.4 1015236
04:00+22сз34915 0.3 1015166
07:00+23сз34879 0.5 1016177
10:00+26ссв57740 0.2 1017779
13:00+27ссв57750 0.5 1014747
16:00+26ссв57773 0.1 1013761
19:00+24ссв35872 0.3 1015249
22:00+24ссв369038 0.6 1017315
10 марта, ср
ср1001:00+24ссв468936 1.4 1015400
04:00+23с468817 0.7 1014390
07:00+23сз35919 1.2 1016281
10:00+26ссв56799 0.9 1017808
13:00+27св67775 1.1 1014791
16:00+26св57778 0.3 1012724
19:00+25св478921 0.9 1015287
22:00+24ссв35896 0.6 1016267
11 марта, чт
чт1101:00+23с34893 0.9 1015295
04:00+22сз33925 0.4 1014195
07:00+23сз33893 0.6 1016150
10:00+26ссв35754 0.1 1017617
13:00+26ссв56794 0.1 1014594
16:00+26ссв56822 0.0 1013620
19:00+24ссв35892 0.0 1015425
22:00+24ссз35900 0.1 1016372
12 марта, пт
пт1201:00+23сз34922 0.4 1015302
04:00+22ссз349256 0.4 1014313
07:00+23сз359061 0.6 1016329
10:00+26ссв567555 0.1 1017760
13:00+26ссв677628 0.1 1013706
16:00+25ссв568112 0.0 1012630
19:00+24с468925 0.1 1014515
22:00+24с458914 0.2 1016438